Regional Weather Roundup
Issued by NWS Little Rock, AR

Home | Current Version | Previous Version | Text Only | Print | Product List | Glossary Off
Versions: 1 2 3 4 5 6 7 8 9 10 11 12 13 14 15 16 17 18 19 20 21 22 23 24 25 26 27 28 29 30 31 32 33 34 35 36 37 38 39 40 41 42 43 44 45 46 47 48 49 50

000
ASUS44 KLZK 282305
RWRLZK

WEATHER ROUNDUP FOR ARKANSAS
NATIONAL WEATHER SERVICE LITTLE ROCK AR
600 PM CDT MON JUL 28 2014

NOTE: "FAIR" INDICATES FEW OR NO CLOUDS BELOW 12,000 FEET WITH NO
SIGNIFICANT WEATHER AND/OR OBSTRUCTIONS TO VISIBILITY.

ARZ001-003-010-029-290000-
NORTHWEST ARKANSAS

CITY           SKY/WX    TMP DP  RH WIND       PRES   REMARKS
FAYETTEVILLE   MOSUNNY   82  58  43 NW10      30.12F
FORT SMITH     PTSUNNY   87  58  37 NW13      30.08F HX  86
HARRISON       SUNNY     82  57  42 NW9G16    30.11F
BENTONVILLE    SUNNY     82  57  42 N8        30.14F
ROGERS         MOSUNNY   83  54  36 NW9       30.14F
SILOAM SPGS    MOSUNNY   81  57  44 N12       30.15S
HIGHFILL       MOSUNNY   83  59  44 NW13G20   30.13F
$$

ARZ004-005-016-290000-
NORTH CENTRAL ARKANSAS

CITY           SKY/WX    TMP DP  RH WIND       PRES   REMARKS
BATESVILLE     SUNNY     84  61  45 N5        30.05F
FLIPPIN        SUNNY     84  55  37 N8        30.08F
MTN HOME       MOSUNNY   83  58  42 VRB5      30.07F
$$

ARZ040-041-290000-
WEST CENTRAL ARKANSAS

CITY           SKY/WX    TMP DP  RH WIND       PRES   REMARKS
MENA           PTSUNNY   86  63  45 CALM      30.10F HX  87
MOUNT IDA      CLOUDY    83  67  58 CALM      30.06F HX  85
$$

ARZ009-017-025-026-028-290000-
NORTHEAST ARKANSAS

CITY           SKY/WX    TMP DP  RH WIND       PRES   REMARKS
CORNING        LGT RAIN  82  64  54 N7        30.04S
JONESBORO      SUNNY     84  63  49 N5        30.03F HX  85
NEWPORT        MOSUNNY   85  64  49 N7        30.05F HX  86
WALNUT RIDGE   MOSUNNY   82  61  47 N5        30.03F
BLYTHEVILLE    PTSUNNY   83  65  54 N6        30.03S HX  85
$$

ARZ022-023-033-042-044-290000-
CENTRAL ARKANSAS

CITY           SKY/WX    TMP DP  RH WIND       PRES   REMARKS
LITTLE ROCK    PTSUNNY   87  60  40 N12       30.04F HX  87
N LITTLE ROCK  PTSUNNY   84  66  53 N8        30.04F HX  86
JACKSONVILLE   SUNNY     86  64  46 N9        30.04F HX  87
SEARCY         MOSUNNY   85  64  49 N8        30.05F HX  86
HOT SPRINGS    PTSUNNY   83  62  49 N5        30.06F
RUSSELLVILLE   SUNNY     88  58  36 N9        30.05F HX  87
CLINTON        FAIR      86  64  48 NW8       30.06F HX  87
$$

ARZ036-290000-
EAST ARKANSAS

CITY           SKY/WX    TMP DP  RH WIND       PRES   REMARKS
WEST MEMPHIS   SUNNY     84  65  52 N13       30.02F HX  86
$$

ARZ050-053-066-070-073-290000-
SOUTHWEST ARKANSAS

CITY           SKY/WX    TMP DP  RH WIND       PRES   REMARKS
ARKADELPHIA    FAIR      87  65  47 N8        30.04F HX  88
CAMDEN         PTSUNNY   90  64  43 N8        30.02F HX  91
TEXARKANA      MOSUNNY   89  67  47 N8G16     30.04F HX  92
EL DORADO      MOSUNNY   88  68  51 N8        30.03F HX  91
DE QUEEN       MOSUNNY   87  65  47 N7        30.04F HX  89
$$

ARZ056-057-069-290000-
SOUTHEAST ARKANSAS

CITY           SKY/WX    TMP DP  RH WIND       PRES   REMARKS
PINE BLUFF     SUNNY     86  62  44 N10       30.04F HX  86
STUTTGART      SUNNY     84  63  48 N10       30.05F HX  85
MONTICELLO     SUNNY     86  64  47 N3        30.02F HX  87

$$





USA.gov is the U.S. government's official web portal to all federal, state and local government web resources and services.